Weather in Shubino

Russia / Nizhny Novgorod Oblast'     55°28′34″N   45°23′40″E
temp.,
°C
wind,
m/s
gust,
m/s
humid.,
%
clouds,
%
prec.,
mm/h
press.,
hPa
HPBL,
m
23 april, fri
fri2300:00+6ssw22835 0.0 102222
03:00+5s33835 0.0 102336
06:00+6sse36849 0.0 1023115
09:00+12s46565 0.0 1023574
12:00+15s44468 0.0 10221548
15:00+15sse3447100 0.0 10201156
18:00+13sse2354100 0.0 101948
21:00+11se4971100 0.0 1019239
24 april, sat
sat2400:00+10se488098 0.3 1017223
03:00+8se3883100 0.3 1015189
06:00+8ese3783100 0.0 1014212
09:00+11ese5768100 0.0 1012585
12:00+13se5656100 0.0 10101208
15:00+14ese564936 0.0 10071658
18:00+11se6974100 0.6 1006804
21:00+9se61089100 2.6 1004574
25 april, sun
sun2500:00+4wsw81294100 3.6 1004708
03:00+5wsw71185100 3.7 1003948
06:00+4sw7118096 0.1 10031214
09:00+3wsw81395100 0.3 1004776
12:00+7w91365100 0.8 10061615
15:00+9w9134797 0.8 10082624
18:00+7wsw8135594 0.3 10101354
21:00+5sw7146820 0.3 1012742
26 april, mon
mon2600:00+3sw715723 0.0 1013602
03:00+2ssw41379100 0.0 1013341
06:00+3sw6127224 0.0 1013838
09:00+5sw7106898 0.0 10131194
12:00+6sw686272 0.0 10131341
15:00+9sw575094 0.1 10131562
18:00+8sw456492 0.1 1012752
21:00+5sw227990 0.1 101132
27 april, tue
tue2700:00+4sw228297 0.0 101125
03:00+4sw228599 0.1 101041
06:00+3wsw1288100 1.8 1009248
09:00+5sw3583100 2.3 1008579
12:00+8w465187 0.6 10071607
15:00+9wnw784477 0.9 10082162
18:00+9w224971 0.0 100759
21:00+5wsw51078100 0.1 1009467